ONEWEB-0323, 49106

Orbit data source: Space-Track

ONEWEB-0323, 49106 is a payload satellite owned by One Web (NAA) (UK) in LEO that was launched on Sat, 21 Aug 2021 UTC via a SOYUZ-2-1B launch vehicle from the Tyuratam Missile And Space Complex (TTMTR). Payload-class satellites include a variety of spacecraft equipped with specific instruments for various scientific and technological missions. These include communications satellites like Starlink; space stations such as the ISS; scientific satellites like the Hubble; Earth observation satellites from companies like Planet Labs, Umbra, and HawkEye 360; GPS; miniature CubeSats for education and research; and military/defense satellites.

Loading next visibility...
Identifier
49106, 2021-075AH
Orbit
LEO
Country
Flag of UKUK
Related business
Manufacturer
One Web
Mission
Operational Commercial Communications
Bus & Motor
ARROW, Unknown motor
Mass
148 kg wet, ~140 kg dry
Launch date (UTC)
2021-08-21 (5 years ago)
Launch vehicle
SOYUZ-2-1B
Launch site
Tyuratam Missile And Space Complex (TTMTR)
Object type
Payload
Rocket body
Debris
Shape & HBR
Trap Box + 2 Pan, 6.7 m
Radar Cross Section
3.464 m², Medium (>0.1 m² and < 1m²)

Expand to show TLE details & history
Last TLE update: 10 hours ago

TLE from 10 hours ago
0 ONEWEB-0323
1 49106U 21075AH  26130.15090338  .00000428  00000-0  11538-2 0  9990
2 49106  87.8978 358.2103 0002058  98.9885 261.1476 13.12445258229569
Epoch: 2026-05-10T03:37Z
TLE epoch observation values (Epoch: 2026-05-10T03:37:18.052Z)
Latitude
-0.00005°
Longitude
75.92697°
Altitude
1,216.846 km
Speed
7.246 km/s
True Right ascension
23h 52m 50s
True Declination
0° 00' 00"
Sunlit
Object was in daylight at epoch
Visualization orbit readout
Latitude
Unknown
Longitude
Unknown
Altitude
Unknown
Speed
Unknown
Apparent Right ascension
Unknown
Apparent Declination
Unknown
Sunlit
N/A
Visualization observer readout
Local Sidereal Time
21:22:21
Azimuth
Unknown
Elevation
Unknown
Doppler factor
Unknown
Orbital elements
Apogee altitude
1,212.393 km
Perigee altitude
1,209.269 km
Semi-major axis
7,588.968 km
Eccentricity
0.00021
Inclination
87.8978°
RAAN
358.2103°
Arg. of periapsis
98.9885°
True anomaly
261.1243°
Mean anomaly
261.1476°
Eccentric anomaly
261.13595°
Mean motion
3.28299 °/min
Orbital period
109.66 mins
BSTAR
0.0011538
Loading maneuver chart data...
Computing Atmospheric mass density...
Loading historical data...
Loading historical data...
Loading historical data...
Loading historical data...
Loading historical data...
Loading historical data...
Loading historical data...

Documentation

Showing up to 5 results
|